Location: *
(35.2348°S, 91.3916°E)
Time: 03:23:13
(UTC+00:00)

YAOGAN 1 - Pass Details

Date: 23 October 2019
Orbit: 619 x 621 km, 98.0° (Epoch: 14 November)

Event Time Altitude Azimuth Distance (km) Brightness Sun altitude
Rises 12:59:36 0° 165° (SSE) 2,933 6.1 -9.3°
Reaches altitude 10° 13:01:50 10° 161° (SSE) 2,019 5.2 -9.8°
Maximum altitude 13:06:11 64° 79° (E) 700 2.6 -10.6°
Drops below altitude 10° 13:10:30 10° 357° (N) 1,990 5.0 -11.4°
Sets 13:12:41 0° 354° (N) 2,888 5.8 -11.8°
